This is the latest recevied weather packets stored in our database for station/object DK4MDA-13. If no packets are shown the sender has not sent any weather packets the latest 10 day(s).
| Time | Temp. | Humidity | Pressure | Rain* | Wind** | Luminosity | Snow |
|---|---|---|---|---|---|---|---|
| 1777901231 | 23.33° C | 50% | 1012.3 hPa | 0 mm | - | - | - |
| 1777900931 | 23.33° C | 48% | 1012.4 hPa | 0 mm | - | - | - |
| 1777900631 | 23.33° C | 49% | 1012.3 hPa | 0 mm | - | - | - |
| 1777900331 | 22.78° C | 51% | 1012.5 hPa | 0 mm | - | - | - |
| 1777900031 | 22.78° C | 51% | 1012.6 hPa | 0 mm | - | - | - |
| 1777899733 | 22.78° C | 51% | 1012.5 hPa | 0 mm | - | - | - |
| 1777899431 | 22.22° C | 50% | 1012.5 hPa | 0 mm | - | - | - |
| 1777898833 | 21.67° C | 51% | 1012.6 hPa | 0 mm | - | - | - |
| 1777898531 | 21.67° C | 54% | 1012.6 hPa | 0 mm | - | - | - |
| 1777898231 | 21.67° C | 54% | 1012.6 hPa | 0 mm | - | - | - |
| 1777897931 | 21.67° C | 56% | 1012.5 hPa | 0 mm | - | - | - |
| 1777897631 | 21.67° C | 55% | 1012.6 hPa | 0 mm | - | - | - |
| 1777897333 | 21.67° C | 56% | 1012.6 hPa | 0 mm | - | - | - |
| 1777897031 | 21.11° C | 56% | 1012.7 hPa | 0 mm | - | - | - |
| 1777896733 | 21.11° C | 58% | 1012.7 hPa | 0 mm | - | - | - |
| 1777896431 | 21.11° C | 56% | 1012.7 hPa | 0 mm | - | - | - |
| 1777896131 | 21.67° C | 57% | 1012.7 hPa | 0 mm | - | - | - |
| 1777895831 | 21.67° C | 55% | 1012.6 hPa | 0 mm | - | - | - |
| 1777895533 | 21.67° C | 59% | 1012.6 hPa | 0 mm | - | - | - |
| 1777895231 | 21.67° C | 55% | 1012.6 hPa | 0 mm | - | - | - |
| 1777894931 | 21.67° C | 55% | 1012.6 hPa | 0 mm | - | - | - |
| 1777894631 | 21.67° C | 55% | 1012.7 hPa | 0 mm | - | - | - |
| 1777894331 | 21.11° C | 56% | 1012.7 hPa | 0 mm | - | - | - |
| 1777894031 | 21.11° C | 56% | 1012.8 hPa | 0 mm | - | - | - |
| 1777893731 | 21.11° C | 59% | 1012.7 hPa | 0 mm | - | - | - |
* Rain latest hour (hover to see other rain measurements)
** Current wind speed in m/s (hover to see current wind gust speed)